Location: 3 Angels Observatory
(30.5437°N, 88.5068°W)
Time: 08:43:37
(UTC-05:00)

Amateur Radio Satellites - All Passes

Search period start: 16 April 2014 08:13
Search period end: 17 April 2014 08:13
Location: 3 Angels Observatory, 30.5437°N, 88.5068°W

Satellite Date Start Highest point End Downlink Frequencies (MHz)
Time Altitude Azimuth
JAS-2 16 Apr 08:31:29 08:36:41 52° 286° (WNW) 08:42:25 435.800 - 435.900 CW/SSB, 435.910 FM
MaSat-1 16 Apr 08:35:44 08:38:52 72° 249° (WSW) 08:42:37 437.345 MHz
SO-67 16 Apr 08:40:20 08:43:22 28° 286° (WNW) 08:46:23 435.3500 MHz FM
HO-68 16 Apr 08:46:28 08:50:54 17° 95° (E) 08:55:18 435.675 MHz FM
PANSAT 16 Apr 08:48:38 08:50:59 16° 156° (SSE) 08:53:20 not established
RS-15 16 Apr 09:04:20 09:14:26 36° 309° (NW) 09:24:18 29.354 - 29.394 USB, Beacon 29.352 USB
Sapphire 16 Apr 10:14:42 10:18:42 21° 56° (NE) 10:22:41 437.095 MHz 1200 baud AX-25 AFSK
PANSAT 16 Apr 10:27:09 10:30:49 42° 167° (SSE) 10:34:28 not established
HO-68 16 Apr 10:31:51 10:38:58 67° 288° (WNW) 10:46:03 435.675 MHz FM
FUNcube-1 16 Apr 10:37:58 10:41:13 21° 97° (E) 10:44:30 145.950 - 145.970 MHz USB
Saudisat 1A 16 Apr 10:53:09 10:56:30 21° 110° (ESE) 10:59:52 436.775 MHz
Oscar 11 16 Apr 10:57:46 11:02:01 55° 284° (WNW) 11:06:16 145.825 FM, Beacon 2401.500 USB
PCSat 16 Apr 10:58:57 11:04:17 57° 63° (ENE) 11:09:34 145.825 MHz
Sapphire 16 Apr 11:57:10 12:02:15 43° 251° (WSW) 12:07:18 437.095 MHz 1200 baud AX-25 AFSK
KITSAT 1 16 Apr 12:05:25 12:12:03 27° 52° (NE) 12:18:36 435.175 FM
PANSAT 16 Apr 12:07:03 12:10:52 64° 180° (S) 12:14:42 not established
FUNcube-1 16 Apr 12:14:08 12:17:31 24° 288° (WNW) 12:20:58 145.950 - 145.970 MHz USB
Saudisat 1A 16 Apr 12:32:01 12:35:54 29° 303° (WNW) 12:39:48 436.775 MHz
PCSat 16 Apr 12:44:28 12:47:08 14° 256° (WSW) 12:49:48 145.825 MHz
ITAMSAT 1 16 Apr 12:57:26 12:58:21 10° 64° (ENE) 12:59:16 435.822 SSB
Oscar 19 16 Apr 13:06:17 13:10:34 28° 70° (ENE) 13:14:53 437.125 CW, 437.150 USB
Oscar 16 16 Apr 13:13:32 13:18:10 36° 72° (ENE) 13:22:50 437.025 USB, Beacon 2401.1428
AO-Echo 16 Apr 13:35:29 13:39:31 23° 70° (ENE) 13:43:30 ?
Uribyol 2 16 Apr 13:42:32 13:47:13 36° 72° (ENE) 13:51:53 436.500 FM
PANSAT 16 Apr 13:47:16 13:50:57 44° 192° (SSW) 13:54:38 not established
Gurwin Techsat 1B 16 Apr 13:57:04 13:59:20 13° 65° (ENE) 14:01:35 435.225 FM
KITSAT 1 16 Apr 13:59:55 14:07:48 58° 249° (WSW) 14:15:37 435.175 FM
AO-27 16 Apr 14:20:21 14:25:33 87° 76° (ENE) 14:30:46 436.795 MHz FM
ITAMSAT 1 16 Apr 14:32:00 14:37:10 73° 258° (WSW) 14:42:22 435.822 SSB
OPAL 16 Apr 14:36:20 14:39:55 19° 97° (E) 14:43:29 ?
TMSAT-1 16 Apr 14:44:57 14:49:24 28° 70° (ENE) 14:53:51 436.925 FM
Oscar 19 16 Apr 14:45:35 14:49:47 26° 263° (W) 14:54:03 437.125 CW, 437.150 USB
Oscar 16 16 Apr 14:53:53 14:57:33 20° 265° (W) 15:01:14 437.025 USB, Beacon 2401.1428
AO-7 16 Apr 15:05:22 15:10:51 20° 59° (ENE) 15:16:19 29.400 - 29.500 MHz
JAS-1B 16 Apr 15:09:43 15:17:10 34° 70° (ENE) 15:23:36 435.800 - 435.900 CW/SSB
AO-Echo 16 Apr 15:13:14 15:18:01 34° 262° (W) 15:22:46 ?
Uribyol 2 16 Apr 15:22:57 15:26:42 20° 264° (W) 15:30:27 436.500 FM
PANSAT 16 Apr 15:28:16 15:30:48 17° 203° (SSW) 15:33:19 not established
Uosat F 16 Apr 15:29:22 15:33:34 27° 70° (ENE) 15:37:45 435.120 FM
ISS 16 Apr 15:32:55 15:36:06 44° 131° (SE) 15:39:19 145.800 FM
Gurwin Techsat 1B 16 Apr 15:33:27 15:38:42 62° 259° (W) 15:43:58 435.225 FM
RS-15 16 Apr 15:59:21 16:09:19 38° 52° (NE) 16:19:28 29.354 - 29.394 USB, Beacon 29.352 USB
SO-50 16 Apr 16:06:31 16:10:59 80° 116° (ESE) 16:15:28 436.795 FM
OPAL 16 Apr 16:14:00 16:18:52 41° 290° (WNW) 16:23:42 ?
TMSAT-1 16 Apr 16:24:46 16:29:11 27° 263° (W) 16:33:38 436.925 FM
AO-7 16 Apr 16:54:29 17:02:44 76° 254° (WSW) 17:11:02 29.400 - 29.500 MHz
JAS-1B 16 Apr 16:59:16 17:07:30 42° 259° (W) 17:14:34 435.800 - 435.900 CW/SSB
Uosat F 16 Apr 17:08:05 17:12:13 26° 263° (W) 17:16:23 435.120 FM
UOSAT-12 16 Apr 17:09:55 17:12:26 15° 108° (ESE) 17:14:59 437.025 FM, 437.400 FM
ISS 16 Apr 17:11:03 17:13:01 15° 325° (NW) 17:14:59 145.800 FM
RS-15 16 Apr 18:11:19 18:21:49 53° 250° (WSW) 18:32:43 29.354 - 29.394 USB, Beacon 29.352 USB
JAS-2 16 Apr 18:38:15 18:43:43 33° 72° (ENE) 18:48:40 435.800 - 435.900 CW/SSB, 435.910 FM
Hamsat 16 Apr 18:45:52 18:49:58 59° 260° (W) 18:54:07 145.90 MHz
STRAND 1 16 Apr 18:47:10 18:51:22 26° 97° (E) 18:55:33 ?
UOSAT-12 16 Apr 18:47:54 18:52:10 41° 301° (WNW) 18:56:32 437.025 FM, 437.400 FM
SO-67 16 Apr 19:08:23 19:11:34 34° 75° (ENE) 19:14:45 435.3500 MHz FM
JAS-2 16 Apr 20:23:34 20:28:42 26° 261° (W) 20:33:26 435.800 - 435.900 CW/SSB, 435.910 FM
STRAND 1 16 Apr 20:26:10 20:30:26 28° 290° (WNW) 20:34:41 ?
HO-68 16 Apr 20:53:56 21:00:47 53° 70° (ENE) 21:07:39 435.675 MHz FM
Saudisat 1A 16 Apr 21:03:39 21:07:52 44° 59° (ENE) 21:12:01 436.775 MHz
Oscar 11 16 Apr 21:47:09 21:51:20 54° 75° (ENE) 21:55:32 145.825 FM, Beacon 2401.500 USB
MaSat-1 16 Apr 22:34:56 22:37:43 26° 293° (WNW) 22:40:11 437.345 MHz
HO-68 16 Apr 22:43:19 22:48:39 23° 264° (W) 22:54:02 435.675 MHz FM
Saudisat 1A 16 Apr 22:45:07 22:47:01 13° 252° (WSW) 22:48:54 436.775 MHz
FUNcube-1 16 Apr 23:04:30 23:08:43 58° 259° (W) 23:12:52 145.950 - 145.970 MHz USB
ISS 16 Apr 23:42:42 23:45:57 45° 43° (NE) 23:49:10 145.800 FM
PCSat 16 Apr 23:54:07 23:57:20 16° 104° (ESE) 00:00:33 145.825 MHz
SO-50 17 Apr 00:44:35 00:47:39 17° 53° (NE) 00:50:44 436.795 FM
Sapphire 17 Apr 00:49:48 00:55:04 56° 111° (ESE) 01:00:22 437.095 MHz 1200 baud AX-25 AFSK
ISS 17 Apr 01:21:24 01:22:21 11° 235° (SW) 01:23:17 145.800 FM
Oscar 19 17 Apr 01:24:27 01:27:31 16° 94° (E) 01:30:35 437.125 CW, 437.150 USB
Oscar 16 17 Apr 01:31:32 01:35:23 21° 96° (E) 01:39:12 437.025 USB, Beacon 2401.1428
PCSat 17 Apr 01:35:03 01:40:15 49° 298° (WNW) 01:45:30 145.825 MHz
OPAL 17 Apr 01:46:29 01:49:45 18° 65° (ENE) 01:53:03 ?
Uribyol 2 17 Apr 02:01:35 02:05:23 21° 96° (E) 02:09:10 436.500 FM
SO-50 17 Apr 02:23:57 02:28:22 43° 247° (WSW) 02:32:51 436.795 FM
KITSAT 1 17 Apr 02:26:54 02:34:10 38° 107° (ESE) 02:41:27 435.175 FM
Sapphire 17 Apr 02:35:29 02:38:49 16° 306° (NW) 02:42:09 437.095 MHz 1200 baud AX-25 AFSK
AO-27 17 Apr 02:39:18 02:44:20 50° 100° (E) 02:49:20 436.795 MHz FM
Oscar 10/S400 17 Apr 02:48:00 03:06:48 46° 141° (SE) 04:06:29 145.825 - 145.975 CW/USB, Beacon 145.810 USB
ITAMSAT 1 17 Apr 02:50:40 02:55:49 66° 102° (ESE) 03:00:56 435.822 SSB
Oscar 19 17 Apr 03:02:03 03:07:00 46° 287° (WNW) 03:11:56 437.125 CW, 437.150 USB
TMSAT-1 17 Apr 03:07:08 03:10:37 18° 95° (E) 03:14:05 436.925 FM
Oscar 16 17 Apr 03:10:02 03:14:44 35° 288° (WNW) 03:19:25 437.025 USB, Beacon 2401.1428
UOSAT-12 17 Apr 03:22:45 03:27:05 35° 58° (ENE) 03:31:22 437.025 FM, 437.400 FM
OPAL 17 Apr 03:23:35 03:28:15 41° 259° (W) 03:33:01 ?
AO-Echo 17 Apr 03:26:08 03:30:51 63° 285° (WNW) 03:35:28 ?
Uribyol 2 17 Apr 03:40:12 03:44:52 35° 288° (WNW) 03:49:32 436.500 FM
Uosat F 17 Apr 03:44:18 03:46:29 13° 94° (E) 03:48:40 435.120 FM
Gurwin Techsat 1B 17 Apr 03:55:24 04:00:43 86° 103° (ESE) 04:06:01 435.225 FM
AO-27 17 Apr 04:20:30 04:23:22 15° 294° (WNW) 04:26:14 436.795 MHz FM
KITSAT 1 17 Apr 04:21:55 04:29:24 40° 303° (WNW) 04:36:56 435.175 FM
ITAMSAT 1 17 Apr 04:33:00 04:34:41 12° 295° (WNW) 04:36:22 435.822 SSB
TMSAT-1 17 Apr 04:45:40 04:50:38 42° 287° (WNW) 04:55:34 436.925 FM
JAS-1B 17 Apr 04:50:37 04:56:18 81° 103° (ESE) 05:02:18 435.800 - 435.900 CW/SSB
AO-7 17 Apr 05:02:29 05:10:36 55° 103° (ESE) 05:18:41 29.400 - 29.500 MHz
UOSAT-12 17 Apr 05:03:41 05:06:56 19° 251° (WSW) 05:10:10 437.025 FM, 437.400 FM
Uosat F 17 Apr 05:20:38 05:25:29 52° 286° (WNW) 05:30:18 435.120 FM
STRAND 1 17 Apr 05:58:09 06:02:00 22° 69° (ENE) 06:05:51 ?
RS-15 17 Apr 06:15:35 06:26:01 42° 108° (ESE) 06:36:02 29.354 - 29.394 USB, Beacon 29.352 USB
Hamsat 17 Apr 06:37:24 06:41:26 36° 98° (E) 06:45:28 145.90 MHz
AO-7 17 Apr 06:56:11 07:02:51 28° 298° (WNW) 07:09:33 29.400 - 29.500 MHz
STRAND 1 17 Apr 07:36:21 07:40:56 33° 262° (W) 07:45:33 ?
JAS-2 17 Apr 07:36:28 07:41:44 48° 101° (E) 07:47:32 435.800 - 435.900 CW/SSB, 435.910 FM
